(2016 OA) |
Classification: Apollo [NEO] SPK-ID: 3755754 |
[ hide orbit diagram ]
For accurate long-term ephemerides, please instead use our Horizons system.This orbit viewer was implemented using two-body methods, and hence should not be used for determining accurate long-term trajectories (over several years or decades) or planetary encounter circumstances.
Orbital Elements at Epoch 2457586.5 (2016-Jul-17.0) TDB
Reference: JPL 3 (heliocentric ecliptic J2000)
Element | Value | Uncertainty (1-sigma) | Units |
e | .6922508372590036 | 0.0015943 | |
a | 2.44543556958841 | 0.011571 | au |
q | .7525807490778846 | 0.00033774 | au |
i | 1.085490750679075 | 0.0017227 | deg |
node | 133.4662259410802 | 0.0094559 | deg |
peri | 231.7526191165101 | 0.011545 | deg |
M | 348.4531750540285 | 0.09158 | deg |
tp | 2457631.301529950195 (2016-Aug-30.80152995) | 0.037337 | TDB |
period | 1396.795297195288 3.82 | 9.9142 0.02714 | d yr |
n | .2577328265085559 | 0.0018293 | deg/d |
Q | 4.138290390098934 | 0.019582 | au |
|
| | Orbit Determination Parameters
Additional Information
|
[ hide covariance matrix ]
Orbit Covariance (6×6)
|
|
e |
q |
tp |
node |
peri |
i |
e |
2.541829991623697E-6 |
-5.383710830361095E-7 |
-5.95251690789987E-5 |
1.424177474730128E-5 |
-1.731410985353776E-5 |
2.732144210546393E-6 |
q |
-5.383710830361095E-7 |
1.140686174616067E-7 |
1.260577530630764E-5 |
-2.999493086270193E-6 |
3.644562720264974E-6 |
-5.79643315894839E-7 |
tp |
-5.95251690789987E-5 |
1.260577530630764E-5 |
.001394068894318451 |
-.0003343490186602176 |
.0004065759505443768 |
-6.393479263267899E-5 |
node |
1.424177474730128E-5 |
-2.999493086270193E-6 |
-.0003343490186602176 |
8.941421616546728E-5 |
-.0001090793598307336 |
1.476369311220296E-5 |
peri |
-1.731410985353776E-5 |
3.644562720264974E-6 |
.0004065759505443768 |
-.0001090793598307336 |
.0001332770226393302 |
-1.792703640774228E-5 |
i |
2.732144210546393E-6 |
-5.79643315894839E-7 |
-6.393479263267899E-5 |
1.476369311220296E-5 |
-1.792703640774228E-5 |
2.967552821225926E-6 |
|
Physical Parameter Table
Parameter |
Symbol |
Value |
Units |
Sigma |
Reference |
Notes |
absolute magnitude |
H |
25.4 |
|
n/a |
MPO384700 |
|
|
[ show close-approach data ]
|